Location: Asheville, NC
(35.6000°N, 82.5500°W)
Time: 03:32:11
(UTC-04:00)

Vanguard 2 - Pass Details

Date: 17 March 2018
Orbit: 553 x 2939 km, 32.9° (Epoch: 17 June)

Event Time Altitude Azimuth Distance (km) Brightness Sun altitude
Rises 13:07:41 0° 265° (W) 5,663 11.9 52.5°
Reaches altitude 10° 13:10:58 10° 264° (W) 4,912 11.7 52.7°
Maximum altitude 13:26:25 82° 180° (S) 2,890 11.8 53.1°
Drops below altitude 10° 13:44:23 10° 96° (E) 5,592 12.1 53.2°
Sets 13:48:24 0° 96° (E) 6,447 12.3 53.2°
